| time (UTC) | temp C | wind direction | speed KPH | gust KPH | rain 1hr cm | rain 24hr cm | rain mn cm | humidity % | barometer mb |
| 20260505003431 | 22 | 74 | 0.0 | 4.8 | 0.00 | 0.03 | 0.03 | 78 | 1017.9 |
| 20260505002931 | 22 | 65 | 0.0 | 4.8 | 0.00 | 0.03 | 0.03 | 79 | 1018.0 |
| 20260505002431 | 22 | 52 | 0.0 | 4.8 | 0.00 | 0.03 | 0.03 | 78 | 1018.0 |
| 20260505001931 | 22 | 71 | 0.0 | 0.0 | 0.00 | 0.03 | 0.03 | 79 | 1018.0 |
| 20260505001431 | 21 | 50 | 0.0 | 0.0 | 0.00 | 0.03 | 0.03 | 81 | 1018.1 |
| 20260505000931 | 21 | 57 | 0.0 | 0.0 | 0.00 | 0.03 | 0.03 | 82 | 1017.9 |
| 20260505000431 | 21 | 49 | 0.0 | 0.0 | 0.00 | 0.03 | 0.03 | 83 | 1017.9 |
| 20260504235931 | 21 | 57 | 0.0 | 0.0 | 0.00 | 0.03 | 0.03 | 84 | 1018.0 |
| 20260504235431 | 20 | 55 | 0.0 | 0.0 | 0.00 | 0.03 | 0.03 | 86 | 1018.0 |
| 20260504234931 | 20 | 74 | 0.0 | 0.0 | 0.00 | 0.03 | 0.03 | 86 | 1018.1 |
| 20260504234431 | 20 | 53 | 0.0 | 0.0 | 0.00 | 0.03 | 0.03 | 87 | 1018.1 |
| 20260504233931 | 20 | 52 | 0.0 | 0.0 | 0.00 | 0.03 | 0.03 | 88 | 1018.2 |
| 20260504233431 | 20 | 70 | 0.0 | 0.0 | 0.00 | 0.03 | 0.03 | 89 | 1018.3 |
| 20260504232931 | 20 | 67 | 0.0 | 0.0 | 0.00 | 0.03 | 0.03 | 89 | 1018.3 |
| 20260504232431 | 20 | 71 | 0.0 | 1.6 | 0.00 | 0.03 | 0.03 | 89 | 1018.3 |
| 20260504231931 | 20 | 69 | 0.0 | 0.0 | 0.00 | 0.03 | 0.03 | 91 | 1018.4 |
| 20260504231431 | 19 | 66 | 0.0 | 0.0 | 0.00 | 0.03 | 0.03 | 93 | 1018.4 |
| 20260504230931 | 19 | 60 | 0.0 | 0.0 | 0.00 | 0.03 | 0.03 | 93 | 1018.3 |
| 20260504230431 | 19 | 71 | 0.0 | 0.0 | 0.00 | 0.03 | 0.03 | 95 | 1018.3 |
| 20260504225931 | 19 | 73 | 0.0 | 0.0 | 0.00 | 0.03 | 0.03 | 95 | 1018.3 |
| 20260504225431 | 18 | 65 | 0.0 | 0.0 | 0.00 | 0.03 | 0.03 | 95 | 1018.3 |
| 20260504224931 | 18 | 71 | 0.0 | 0.0 | 0.00 | 0.03 | 0.03 | 96 | 1018.4 |
| 20260504224431 | 18 | 68 | 0.0 | 0.0 | 0.00 | 0.03 | 0.03 | 95 | 1018.5 |
| 20260504223931 | 18 | 57 | 0.0 | 0.0 | 0.00 | 0.03 | 0.03 | 95 | 1018.4 |
| 20260504223431 | 18 | 74 | 0.0 | 0.0 | 0.00 | 0.03 | 0.03 | 96 | 1018.5 |
| 20260504222931 | 18 | 57 | 0.0 | 1.6 | 0.00 | 0.03 | 0.03 | 96 | 1018.4 |
| 20260504222431 | 18 | 67 | 0.0 | 0.0 | 0.00 | 0.03 | 0.03 | 96 | 1018.5 |
| 20260504221931 | 18 | 64 | 0.0 | 0.0 | 0.00 | 0.03 | 0.03 | 96 | 1018.3 |
| 20260504221431 | 18 | 74 | 0.0 | 0.0 | 0.00 | 0.03 | 0.03 | 96 | 1018.3 |
| 20260504220931 | 18 | 77 | 0.0 | 0.0 | 0.00 | 0.03 | 0.03 | 96 | 1018.3 |
| 20260504220431 | 18 | 77 | 0.0 | 0.0 | 0.00 | 0.03 | 0.03 | 96 | 1018.2 |
| 20260504215931 | 17 | 76 | 0.0 | 0.0 | 0.00 | 0.03 | 0.03 | 96 | 1018.3 |
| 20260504215431 | 17 | 72 | 0.0 | 0.0 | 0.00 | 0.03 | 0.03 | 95 | 1018.3 |
| 20260504214931 | 17 | 72 | 0.0 | 0.0 | 0.00 | 0.03 | 0.03 | 95 | 1018.3 |
| 20260504214431 | 17 | 77 | 0.0 | 0.0 | 0.00 | 0.03 | 0.03 | 95 | 1018.2 |
| 20260504213931 | 17 | 82 | 0.0 | 0.0 | 0.00 | 0.03 | 0.03 | 95 | 1018.2 |
| 20260504213431 | 17 | 88 | 0.0 | 0.0 | 0.00 | 0.03 | 0.03 | 95 | 1018.1 |
| 20260504212931 | 17 | 103 | 0.0 | 0.0 | 0.00 | 0.03 | 0.03 | 95 | 1018.0 |
| 20260504212431 | 17 | 105 | 0.0 | 0.0 | 0.00 | 0.03 | 0.03 | 95 | 1017.9 |
| 20260504211931 | 17 | 103 | 0.0 | 0.0 | 0.00 | 0.03 | 0.03 | 95 | 1017.8 |
| 20260504211431 | 17 | 86 | 0.0 | 0.0 | 0.00 | 0.03 | 0.03 | 95 | 1017.8 |
| 20260504210931 | 17 | 85 | 0.0 | 0.0 | 0.00 | 0.03 | 0.03 | 95 | 1017.8 |
| 20260504210431 | 17 | 85 | 0.0 | 0.0 | 0.00 | 0.03 | 0.03 | 95 | 1017.7 |
| 20260504205931 | 17 | 67 | 0.0 | 0.0 | 0.00 | 0.03 | 0.03 | 95 | 1017.7 |
| 20260504205431 | 17 | 84 | 0.0 | 0.0 | 0.00 | 0.03 | 0.03 | 95 | 1017.8 |
| 20260504204931 | 17 | 91 | 0.0 | 0.0 | 0.00 | 0.03 | 0.03 | 95 | 1017.6 |
| 20260504204431 | 17 | 92 | 0.0 | 0.0 | 0.00 | 0.03 | 0.03 | 95 | 1017.6 |
| 20260504203931 | 17 | 94 | 0.0 | 0.0 | 0.00 | 0.03 | 0.03 | 95 | 1017.6 |
| 20260504203431 | 17 | 98 | 0.0 | 0.0 | 0.00 | 0.03 | 0.03 | 95 | 1017.5 |
| 20260504202931 | 16 | 92 | 0.0 | 0.0 | 0.00 | 0.03 | 0.03 | 95 | 1017.4 |
| 20260504202431 | 16 | 92 | 0.0 | 0.0 | 0.00 | 0.03 | 0.03 | 95 | 1017.5 |
| 20260504201931 | 16 | 94 | 0.0 | 0.0 | 0.00 | 0.03 | 0.03 | 95 | 1017.6 |
| 20260504201431 | 16 | 96 | 0.0 | 0.0 | 0.00 | 0.03 | 0.03 | 95 | 1017.5 |
| 20260504200931 | 16 | 92 | 0.0 | 0.0 | 0.00 | 0.03 | 0.03 | 95 | 1017.5 |
| 20260504200431 | 16 | 96 | 0.0 | 0.0 | 0.00 | 0.03 | 0.03 | 95 | 1017.5 |
| 20260504195931 | 16 | 95 | 0.0 | 0.0 | 0.00 | 0.03 | 0.03 | 95 | 1017.4 |
| 20260504195431 | 16 | 94 | 0.0 | 0.0 | 0.00 | 0.03 | 0.03 | 95 | 1017.3 |
| 20260504194931 | 16 | 94 | 0.0 | 0.0 | 0.00 | 0.03 | 0.03 | 95 | 1017.3 |
| 20260504194431 | 16 | 95 | 0.0 | 0.0 | 0.00 | 0.03 | 0.03 | 95 | 1017.3 |
| 20260504193931 | 16 | 96 | 0.0 | 0.0 | 0.00 | 0.03 | 0.03 | 95 | 1017.2 |
| 20260504193431 | 16 | 94 | 0.0 | 0.0 | 0.00 | 0.03 | 0.03 | 95 | 1017.0 |
| 20260504192931 | 16 | 94 | 0.0 | 0.0 | 0.00 | 0.03 | 0.03 | 95 | 1017.0 |
| 20260504192431 | 16 | 94 | 0.0 | 0.0 | 0.00 | 0.03 | 0.03 | 95 | 1016.8 |
| 20260504191932 | 16 | 98 | 0.0 | 0.0 | 0.00 | 0.03 | 0.03 | 95 | 1016.8 |
| 20260504191431 | 16 | 98 | 0.0 | 0.0 | 0.03 | 0.03 | 0.03 | 95 | 1016.7 |
| 20260504190931 | 16 | 102 | 0.0 | 0.0 | 0.03 | 0.03 | 0.03 | 95 | 1016.8 |
| 20260504190431 | 16 | 105 | 0.0 | 0.0 | 0.03 | 0.03 | 0.03 | 95 | 1016.8 |
| 20260504185931 | 16 | 96 | 0.0 | 0.0 | 0.03 | 0.03 | 0.03 | 95 | 1016.8 |
| 20260504185431 | 16 | 94 | 0.0 | 0.0 | 0.03 | 0.03 | 0.03 | 95 | 1016.7 |
| 20260504184932 | 16 | 102 | 0.0 | 0.0 | 0.03 | 0.03 | 0.03 | 94 | 1016.6 |
| 20260504184431 | 16 | 92 | 0.0 | 0.0 | 0.03 | 0.03 | 0.03 | 94 | 1016.6 |
| 20260504183931 | 16 | 98 | 0.0 | 0.0 | 0.03 | 0.03 | 0.03 | 94 | 1016.6 |
| 20260504183431 | 17 | 96 | 0.0 | 0.0 | 0.03 | 0.03 | 0.03 | 95 | 1016.6 |
| 20260504182931 | 17 | 88 | 0.0 | 0.0 | 0.03 | 0.03 | 0.03 | 95 | 1016.6 |
| 20260504182431 | 16 | 92 | 0.0 | 0.0 | 0.03 | 0.03 | 0.03 | 95 | 1016.6 |
| 20260504181931 | 16 | 88 | 0.0 | 0.0 | 0.03 | 0.03 | 0.03 | 95 | 1016.6 |
| 20260504181431 | 16 | 98 | 0.0 | 0.0 | 0.00 | 0.00 | 0.00 | 94 | 1016.6 |
| 20260504180932 | 16 | 84 | 0.0 | 0.0 | 0.00 | 0.00 | 0.00 | 94 | 1016.6 |
| 20260504180432 | 16 | 83 | 0.0 | 0.0 | 0.00 | 0.00 | 0.00 | 94 | 1016.6 |
| 20260504175931 | 16 | 83 | 0.0 | 0.0 | 0.00 | 0.00 | 0.00 | 94 | 1016.7 |
| 20260504175431 | 16 | 82 | 0.0 | 0.0 | 0.00 | 0.00 | 0.00 | 94 | 1016.6 |
| 20260504174931 | 16 | 81 | 0.0 | 0.0 | 0.00 | 0.00 | 0.00 | 94 | 1016.6 |
| 20260504174432 | 16 | 81 | 0.0 | 0.0 | 0.00 | 0.00 | 0.00 | 94 | 1016.5 |
| 20260504173932 | 16 | 83 | 0.0 | 0.0 | 0.00 | 0.00 | 0.00 | 94 | 1016.5 |
| 20260504173432 | 16 | 81 | 0.0 | 0.0 | 0.00 | 0.00 | 0.00 | 94 | 1016.5 |
| 20260504172932 | 16 | 68 | 0.0 | 0.0 | 0.00 | 0.00 | 0.00 | 93 | 1016.6 |
| 20260504172432 | 16 | 62 | 0.0 | 0.0 | 0.00 | 0.00 | 0.00 | 93 | 1016.7 |
| 20260504171932 | 16 | 27 | 0.0 | 0.0 | 0.00 | 0.00 | 0.00 | 93 | 1016.7 |
| 20260504171432 | 16 | 28 | 0.0 | 0.0 | 0.00 | 0.00 | 0.00 | 94 | 1016.6 |
| 20260504170932 | 16 | 26 | 0.0 | 0.0 | 0.00 | 0.00 | 0.00 | 94 | 1016.6 |
| 20260504170432 | 16 | 25 | 0.0 | 0.0 | 0.00 | 0.00 | 0.00 | 92 | 1016.5 |
| 20260504160432 | 18 | 26 | 0.0 | 0.0 | 0.00 | 0.00 | 0.00 | 92 | 1016.9 |
| 20260504150932 | 18 | 32 | 0.0 | 3.2 | 0.00 | 0.00 | 0.00 | 92 | 1017.3 |
| 20260504150432 | 18 | 25 | 0.0 | 1.6 | 0.00 | 0.00 | 0.00 | 92 | 1017.3 |
| 20260504140932 | 18 | 28 | 1.6 | 4.8 | 0.00 | 0.00 | 0.00 | 93 | 1017.6 |
| 20260504140432 | 18 | 26 | 0.0 | 1.6 | 0.00 | 0.00 | 0.00 | 93 | 1017.6 |
| 20260504130432 | 19 | 23 | 1.6 | 4.8 | 0.00 | 0.03 | 0.00 | 92 | 1018.0 |
| 20260504110432 | 20 | 33 | 3.2 | 6.4 | 0.00 | 0.03 | 0.00 | 87 | 1018.5 |
| 20260504100432 | 20 | 25 | 1.6 | 6.4 | 0.00 | 0.03 | 0.00 | 85 | 1018.3 |
| 20260504081932 | 22 | 22 | 0.0 | 4.8 | 0.00 | 0.03 | 0.00 | 76 | 1016.8 |
| 20260504081432 | 22 | 24 | 1.6 | 6.4 | 0.00 | 0.03 | 0.00 | 75 | 1016.8 |
| 20260504080932 | 22 | 27 | 0.0 | 4.8 | 0.00 | 0.03 | 0.00 | 75 | 1016.7 |
| 20260504080432 | 22 | 22 | 0.0 | 4.8 | 0.00 | 0.03 | 0.00 | 74 | 1016.7 |
| 20260504050433 | 25 | 16 | 1.6 | 6.4 | 0.00 | 0.03 | 0.00 | 60 | 1015.8 |
| 20260504045933 | 25 | 19 | 1.6 | 8.0 | 0.00 | 0.03 | 0.00 | 61 | 1016.0 |
| 20260504045433 | 25 | 13 | 3.2 | 11.3 | 0.00 | 0.03 | 0.00 | 61 | 1016.0 |
| 20260504044933 | 25 | 25 | 3.2 | 8.0 | 0.00 | 0.03 | 0.00 | 60 | 1016.1 |
| 20260504044433 | 25 | 24 | 3.2 | 6.4 | 0.00 | 0.03 | 0.00 | 60 | 1016.0 |
| 20260504043933 | 25 | 22 | 3.2 | 9.7 | 0.00 | 0.03 | 0.00 | 60 | 1016.1 |
| 20260504043433 | 25 | 17 | 3.2 | 8.0 | 0.00 | 0.03 | 0.00 | 60 | 1016.1 |
| 20260504042933 | 25 | 17 | 3.2 | 11.3 | 0.00 | 0.03 | 0.00 | 59 | 1016.1 |
| 20260504042433 | 25 | 9 | 1.6 | 6.4 | 0.00 | 0.03 | 0.00 | 60 | 1016.1 |
| 20260504041933 | 25 | 18 | 1.6 | 4.8 | 0.00 | 0.03 | 0.00 | 60 | 1016.1 |
| 20260504041433 | 25 | 18 | 1.6 | 4.8 | 0.00 | 0.03 | 0.00 | 60 | 1016.1 |
| 20260504040933 | 25 | 17 | 1.6 | 4.8 | 0.00 | 0.03 | 0.00 | 60 | 1016.2 |
| 20260504040433 | 25 | 21 | 1.6 | 11.3 | 0.00 | 0.03 | 0.00 | 61 | 1016.1 |
| 20260504035933 | 25 | 20 | 1.6 | 6.4 | 0.00 | 0.03 | 0.00 | 61 | 1016.1 |
| 20260504035433 | 25 | 59 | 0.0 | 4.8 | 0.00 | 0.03 | 0.00 | 61 | 1016.1 |
| 20260504034933 | 25 | 24 | 1.6 | 1.6 | 0.00 | 0.03 | 0.00 | 62 | 1016.2 |
| 20260504034433 | 25 | 24 | 1.6 | 4.8 | 0.00 | 0.03 | 0.00 | 61 | 1016.3 |
| 20260504033933 | 25 | 20 | 1.6 | 6.4 | 0.00 | 0.03 | 0.00 | 61 | 1016.4 |
| 20260504033433 | 25 | 20 | 3.2 | 6.4 | 0.00 | 0.03 | 0.00 | 60 | 1016.3 |
| 20260504032933 | 25 | 22 | 6.4 | 12.9 | 0.00 | 0.03 | 0.00 | 59 | 1016.4 |
| 20260504032433 | 25 | 22 | 8.0 | 14.5 | 0.00 | 0.03 | 0.00 | 57 | 1016.4 |
| 20260504031933 | 26 | 19 | 6.4 | 14.5 | 0.00 | 0.03 | 0.00 | 54 | 1016.5 |
| 20260504031433 | 27 | 17 | 4.8 | 14.5 | 0.00 | 0.03 | 0.00 | 53 | 1016.5 |
| 20260504030933 | 27 | 64 | 4.8 | 12.9 | 0.00 | 0.03 | 0.00 | 56 | 1016.5 |
| 20260504030433 | 27 | 65 | 3.2 | 8.0 | 0.00 | 0.03 | 0.00 | 55 | 1016.5 |
| 20260504025933 | 27 | 67 | 3.2 | 9.7 | 0.00 | 0.03 | 0.00 | 56 | 1016.6 |
| 20260504025433 | 27 | 14 | 3.2 | 6.4 | 0.00 | 0.03 | 0.00 | 54 | 1016.7 |
| 20260504024933 | 27 | 71 | 3.2 | 12.9 | 0.00 | 0.03 | 0.00 | 54 | 1016.9 |
| 20260504024433 | 26 | 69 | 3.2 | 9.7 | 0.00 | 0.03 | 0.00 | 54 | 1016.9 |
| 20260504023933 | 26 | 17 | 4.8 | 8.0 | 0.00 | 0.03 | 0.00 | 53 | 1016.9 |
| 20260504023433 | 26 | 52 | 4.8 | 14.5 | 0.00 | 0.03 | 0.00 | 53 | 1017.0 |
| 20260504022933 | 27 | 69 | 1.6 | 6.4 | 0.00 | 0.03 | 0.00 | 54 | 1017.0 |
| 20260504022433 | 26 | 24 | 3.2 | 6.4 | 0.00 | 0.03 | 0.00 | 52 | 1017.1 |
| 20260504021933 | 26 | 57 | 3.2 | 8.0 | 0.00 | 0.03 | 0.00 | 56 | 1017.3 |
| 20260504021433 | 26 | 5 | 3.2 | 9.7 | 0.00 | 0.03 | 0.00 | 56 | 1017.3 |
| 20260504020933 | 26 | 33 | 3.2 | 8.0 | 0.00 | 0.03 | 0.00 | 58 | 1017.4 |
| 20260504020433 | 26 | 26 | 4.8 | 9.7 | 0.00 | 0.03 | 0.00 | 60 | 1017.5 |
| 20260504015933 | 25 | 63 | 4.8 | 14.5 | 0.00 | 0.03 | 0.00 | 62 | 1017.5 |
| 20260504015433 | 25 | 13 | 4.8 | 14.5 | 0.00 | 0.03 | 0.00 | 62 | 1017.6 |
| 20260504014933 | 25 | 70 | 3.2 | 9.7 | 0.00 | 0.03 | 0.00 | 64 | 1017.6 |
| 20260504014433 | 24 | 37 | 1.6 | 6.4 | 0.00 | 0.03 | 0.00 | 68 | 1017.8 |
| 20260504013933 | 23 | 17 | 1.6 | 3.2 | 0.00 | 0.03 | 0.00 | 68 | 1018.0 |
| 20260504013433 | 23 | 23 | 3.2 | 6.4 | 0.00 | 0.03 | 0.00 | 69 | 1018.2 |
| 20260504012933 | 23 | 17 | 4.8 | 8.0 | 0.00 | 0.03 | 0.00 | 69 | 1018.3 |
| 20260504012433 | 23 | 17 | 8.0 | 16.1 | 0.00 | 0.03 | 0.00 | 69 | 1018.4 |
| 20260504011933 | 23 | 15 | 4.8 | 16.1 | 0.00 | 0.03 | 0.00 | 67 | 1018.4 |
| 20260504011433 | 23 | 24 | 1.6 | 12.9 | 0.00 | 0.03 | 0.00 | 71 | 1018.4 |
| 20260504010933 | 23 | 19 | 1.6 | 4.8 | 0.00 | 0.03 | 0.00 | 72 | 1018.6 |
| 20260504010433 | 23 | 21 | 3.2 | 8.0 | 0.00 | 0.03 | 0.00 | 72 | 1018.6 |
| 20260504005933 | 23 | 19 | 4.8 | 11.3 | 0.00 | 0.03 | 0.00 | 72 | 1018.6 |
| 20260504005433 | 23 | 22 | 3.2 | 12.9 | 0.00 | 0.03 | 0.00 | 73 | 1018.8 |
| 20260504004933 | 22 | 20 | 1.6 | 4.8 | 0.00 | 0.03 | 0.00 | 75 | 1018.9 |
| 20260504004433 | 22 | 20 | 1.6 | 6.4 | 0.00 | 0.03 | 0.00 | 76 | 1018.9 |
| 20260504003933 | 22 | 19 | 3.2 | 4.8 | 0.00 | 0.03 | 0.00 | 78 | 1019.0 |